owner,sensor,date,latitude,longitude,vertical_datum,wind_speed,wind_to_direction,wind_speed_of_gust,qcFlag 
WAVCIS,ioos:station:WAVCIS:CSI09:1,2009-10-01T00:00:00Z,29.1015,-89.9782,0.0,3.477,73.0,,'11111222,11111222,99999999' 
WAVCIS,ioos:station:WAVCIS:CSI09:1,2009-10-01T01:00:00Z,29.1015,-89.9782,0.0,2.882,77.0,,'11111222,11111222,99999999' 
WAVCIS,ioos:station:WAVCIS:CSI09:1,2009-10-01T02:00:00Z,29.1015,-89.9782,0.0,2.833,80.0,,'11111222,11111222,99999999' 
WAVCIS,ioos:station:WAVCIS:CSI09:1,2009-10-01T03:00:00Z,29.1015,-89.9782,0.0,3.518,90.0,,'11111222,11111222,99999999' 
WAVCIS,ioos:station:WAVCIS:CSI09:1,2009-10-01T04:00:00Z,29.1015,-89.9782,0.0,3.419,85.0,,'11111222,11111222,99999999' 
WAVCIS,ioos:station:WAVCIS:CSI09:1,2009-10-01T05:00:00Z,29.1015,-89.9782,0.0,2.566,94.0,,'11111222,11111222,99999999' 
WAVCIS,ioos:station:WAVCIS:CSI09:1,2009-10-01T06:00:00Z,29.1015,-89.9782,0.0,3.227,110.0,,'11111222,11111222,99999999' 
WAVCIS,ioos:station:WAVCIS:CSI09:1,2009-10-01T07:00:00Z,29.1015,-89.9782,0.0,3.008,120.0,,'11111222,11111222,99999999' 
WAVCIS,ioos:station:WAVCIS:CSI09:1,2009-10-01T08:00:00Z,29.1015,-89.9782,0.0,2.933,107.0,,'11111222,11111222,99999999' 
WAVCIS,ioos:station:WAVCIS:CSI09:1,2009-10-01T09:00:00Z,29.1015,-89.9782,0.0,2.829,111.0,,'11111222,11111222,99999999' 
WAVCIS,ioos:station:WAVCIS:CSI09:1,2009-10-01T10:00:00Z,29.1015,-89.9782,0.0,2.779,88.0,,'11111222,11111222,99999999' 
WAVCIS,ioos:station:WAVCIS:CSI09:1,2009-10-01T11:00:00Z,29.1015,-89.9782,0.0,3.15,109.0,,'11111222,11111222,99999999' 
WAVCIS,ioos:station:WAVCIS:CSI09:1,2009-10-01T12:00:00Z,29.1015,-89.9782,0.0,3.344,116.0,,'11111222,11111222,99999999' 
WAVCIS,ioos:station:WAVCIS:CSI09:1,2009-10-01T13:00:00Z,29.1015,-89.9782,0.0,2.331,140.0,,'11111222,11111222,99999999' 
WAVCIS,ioos:station:WAVCIS:CSI09:1,2009-10-01T14:00:00Z,29.1015,-89.9782,0.0,2.909,140.0,,'11111222,11111222,99999999' 
WAVCIS,ioos:station:WAVCIS:CSI09:1,2009-10-01T15:00:00Z,29.1015,-89.9782,0.0,2.17,145.0,,'11111222,11111222,99999999' 
WAVCIS,ioos:station:WAVCIS:CSI09:1,2009-10-01T16:00:00Z,29.1015,-89.9782,0.0,2.063,130.0,,'11111222,11111222,99999999' 
WAVCIS,ioos:station:WAVCIS:CSI09:1,2009-10-01T17:00:00Z,29.1015,-89.9782,0.0,2.261,129.0,,'11111222,11111222,99999999' 
WAVCIS,ioos:station:WAVCIS:CSI09:1,2009-10-01T18:00:00Z,29.1015,-89.9782,0.0,2.479,131.0,,'11111222,11111222,99999999' 
WAVCIS,ioos:station:WAVCIS:CSI09:1,2009-10-01T19:00:00Z,29.1015,-89.9782,0.0,2.571,123.0,,'11111222,11111222,99999999' 
WAVCIS,ioos:station:WAVCIS:CSI09:1,2009-10-01T20:00:00Z,29.1015,-89.9782,0.0,2.956,108.0,,'11111222,11111222,99999999' 
WAVCIS,ioos:station:WAVCIS:CSI09:1,2009-10-01T21:00:00Z,29.1015,-89.9782,0.0,2.659,130.0,,'11111222,11111222,99999999' 
WAVCIS,ioos:station:WAVCIS:CSI09:1,2009-10-01T22:00:00Z,29.1015,-89.9782,0.0,3.187,136.0,,'11111222,11111222,99999999' 
WAVCIS,ioos:station:WAVCIS:CSI09:1,2009-10-01T23:00:00Z,29.1015,-89.9782,0.0,3.232,132.0,,'11111222,11111222,99999999' 
WAVCIS,ioos:station:WAVCIS:CSI09:1,2009-10-02T00:00:00Z,29.1015,-89.9782,0.0,3.828,135.0,,'11111222,11111222,99999999' 
WAVCIS,ioos:station:WAVCIS:CSI09:1,2009-10-02T01:00:00Z,29.1015,-89.9782,0.0,3.611,142.0,,'11111222,11111222,99999999' 
WAVCIS,ioos:station:WAVCIS:CSI09:1,2009-10-02T02:00:00Z,29.1015,-89.9782,0.0,4.604,140.0,,'11111222,11111222,99999999' 
WAVCIS,ioos:station:WAVCIS:CSI09:1,2009-10-02T03:00:00Z,29.1015,-89.9782,0.0,6.501,148.0,,'11111222,11111222,99999999' 
WAVCIS,ioos:station:WAVCIS:CSI09:1,2009-10-02T04:00:00Z,29.1015,-89.9782,0.0,7.89,155.0,,'11111222,11111222,99999999' 
WAVCIS,ioos:station:WAVCIS:CSI09:1,2009-10-02T05:00:00Z,29.1015,-89.9782,0.0,8.6,158.0,,'11111222,11111222,99999999' 
WAVCIS,ioos:station:WAVCIS:CSI09:1,2009-10-02T06:00:00Z,29.1015,-89.9782,0.0,7.83,167.0,,'11111222,11111222,99999999' 
WAVCIS,ioos:station:WAVCIS:CSI09:1,2009-10-02T07:00:00Z,29.1015,-89.9782,0.0,7.27,172.0,,'11111222,11111222,99999999' 
WAVCIS,ioos:station:WAVCIS:CSI09:1,2009-10-02T08:00:00Z,29.1015,-89.9782,0.0,6.399,179.0,,'11111222,11111222,99999999' 
WAVCIS,ioos:station:WAVCIS:CSI09:1,2009-10-02T09:00:00Z,29.1015,-89.9782,0.0,8.29,175.0,,'11111222,11111222,99999999' 
WAVCIS,ioos:station:WAVCIS:CSI09:1,2009-10-02T10:00:00Z,29.1015,-89.9782,0.0,7.82,173.0,,'11111222,11111222,99999999' 
WAVCIS,ioos:station:WAVCIS:CSI09:1,2009-10-02T11:00:00Z,29.1015,-89.9782,0.0,5.34,170.0,,'11111222,11111222,99999999' 
WAVCIS,ioos:station:WAVCIS:CSI09:1,2009-10-02T12:00:00Z,29.1015,-89.9782,0.0,1.717,114.0,,'11111222,11111222,99999999' 
WAVCIS,ioos:station:WAVCIS:CSI09:1,2009-10-02T13:00:00Z,29.1015,-89.9782,0.0,14.0,27.0,,'11111222,11111222,99999999' 
WAVCIS,ioos:station:WAVCIS:CSI09:1,2009-10-02T14:00:00Z,29.1015,-89.9782,0.0,8.89,33.0,,'11111222,11111222,99999999' 
WAVCIS,ioos:station:WAVCIS:CSI09:1,2009-10-02T15:00:00Z,29.1015,-89.9782,0.0,3.485,46.0,,'11111222,11111222,99999999' 
WAVCIS,ioos:station:WAVCIS:CSI09:1,2009-10-02T16:00:00Z,29.1015,-89.9782,0.0,6.58,140.0,,'11111222,11111222,99999999' 
WAVCIS,ioos:station:WAVCIS:CSI09:1,2009-10-02T17:00:00Z,29.1015,-89.9782,0.0,8.96,151.0,,'11111222,11111222,99999999' 
WAVCIS,ioos:station:WAVCIS:CSI09:1,2009-10-02T18:00:00Z,29.1015,-89.9782,0.0,7.28,160.0,,'11111222,11111222,99999999' 
WAVCIS,ioos:station:WAVCIS:CSI09:1,2009-10-02T19:00:00Z,29.1015,-89.9782,0.0,7.52,167.0,,'11111222,11111222,99999999' 
WAVCIS,ioos:station:WAVCIS:CSI09:1,2009-10-02T20:00:00Z,29.1015,-89.9782,0.0,5.555,219.0,,'11111222,11111222,99999999' 
WAVCIS,ioos:station:WAVCIS:CSI09:1,2009-10-02T21:00:00Z,29.1015,-89.9782,0.0,5.103,244.0,,'11111222,11111222,99999999' 
WAVCIS,ioos:station:WAVCIS:CSI09:1,2009-10-02T22:00:00Z,29.1015,-89.9782,0.0,4.743,245.0,,'11111222,11111222,99999999' 
WAVCIS,ioos:station:WAVCIS:CSI09:1,2009-10-02T23:00:00Z,29.1015,-89.9782,0.0,3.727,253.0,,'11111222,11111222,99999999' 
WAVCIS,ioos:station:WAVCIS:CSI09:1,2009-10-03T00:00:00Z,29.1015,-89.9782,0.0,3.067,327.0,,'11111222,11111222,99999999' 
WAVCIS,ioos:station:WAVCIS:CSI09:1,2009-10-03T01:00:00Z,29.1015,-89.9782,0.0,2.831,345.0,,'11111222,11111222,99999999' 
WAVCIS,ioos:station:WAVCIS:CSI09:1,2009-10-03T02:00:00Z,29.1015,-89.9782,0.0,4.046,12.0,,'11111222,11111222,99999999' 
WAVCIS,ioos:station:WAVCIS:CSI09:1,2009-10-03T03:00:00Z,29.1015,-89.9782,0.0,4.589,45.0,,'11111222,11111222,99999999' 
WAVCIS,ioos:station:WAVCIS:CSI09:1,2009-10-03T04:00:00Z,29.1015,-89.9782,0.0,3.581,58.0,,'11111222,11111222,99999999' 
WAVCIS,ioos:station:WAVCIS:CSI09:1,2009-10-03T05:00:00Z,29.1015,-89.9782,0.0,2.956,79.0,,'11111222,11111222,99999999' 
WAVCIS,ioos:station:WAVCIS:CSI09:1,2009-10-03T06:00:00Z,29.1015,-89.9782,0.0,3.166,82.0,,'11111222,11111222,99999999' 
WAVCIS,ioos:station:WAVCIS:CSI09:1,2009-10-03T07:00:00Z,29.1015,-89.9782,0.0,3.288,73.0,,'11111222,11111222,99999999' 
WAVCIS,ioos:station:WAVCIS:CSI09:1,2009-10-03T08:00:00Z,29.1015,-89.9782,0.0,2.765,85.0,,'11111222,11111222,99999999' 
WAVCIS,ioos:station:WAVCIS:CSI09:1,2009-10-03T09:00:00Z,29.1015,-89.9782,0.0,2.741,89.0,,'11111222,11111222,99999999' 
WAVCIS,ioos:station:WAVCIS:CSI09:1,2009-10-03T10:00:00Z,29.1015,-89.9782,0.0,2.301,83.0,,'11111222,11111222,99999999' 
WAVCIS,ioos:station:WAVCIS:CSI09:1,2009-10-03T11:00:00Z,29.1015,-89.9782,0.0,3.697,40.0,,'11111222,11111222,99999999' 
WAVCIS,ioos:station:WAVCIS:CSI09:1,2009-10-03T12:00:00Z,29.1015,-89.9782,0.0,5.669,29.0,,'11111222,11111222,99999999' 
WAVCIS,ioos:station:WAVCIS:CSI09:1,2009-10-03T13:00:00Z,29.1015,-89.9782,0.0,5.556,56.0,,'11111222,11111222,99999999' 
WAVCIS,ioos:station:WAVCIS:CSI09:1,2009-10-03T14:00:00Z,29.1015,-89.9782,0.0,4.233,89.0,,'11111222,11111222,99999999' 
WAVCIS,ioos:station:WAVCIS:CSI09:1,2009-10-03T15:00:00Z,29.1015,-89.9782,0.0,4.117,98.0,,'11111222,11111222,99999999' 
WAVCIS,ioos:station:WAVCIS:CSI09:1,2009-10-03T16:00:00Z,29.1015,-89.9782,0.0,3.583,93.0,,'11111222,11111222,99999999' 
WAVCIS,ioos:station:WAVCIS:CSI09:1,2009-10-03T17:00:00Z,29.1015,-89.9782,0.0,3.918,89.0,,'11111222,11111222,99999999' 
WAVCIS,ioos:station:WAVCIS:CSI09:1,2009-10-03T18:00:00Z,29.1015,-89.9782,0.0,3.419,94.0,,'11111222,11111222,99999999' 
WAVCIS,ioos:station:WAVCIS:CSI09:1,2009-10-03T19:00:00Z,29.1015,-89.9782,0.0,4.109,114.0,,'11111222,11111222,99999999' 
WAVCIS,ioos:station:WAVCIS:CSI09:1,2009-10-03T20:00:00Z,29.1015,-89.9782,0.0,3.408,111.0,,'11111222,11111222,99999999' 
WAVCIS,ioos:station:WAVCIS:CSI09:1,2009-10-03T21:00:00Z,29.1015,-89.9782,0.0,2.662,93.0,,'11111222,11111222,99999999' 
WAVCIS,ioos:station:WAVCIS:CSI09:1,2009-10-03T22:00:00Z,29.1015,-89.9782,0.0,2.832,89.0,,'11111222,11111222,99999999' 
WAVCIS,ioos:station:WAVCIS:CSI09:1,2009-10-03T23:00:00Z,29.1015,-89.9782,0.0,4.766,118.0,,'11111222,11111222,99999999' 
WAVCIS,ioos:station:WAVCIS:CSI09:1,2009-10-04T00:00:00Z,29.1015,-89.9782,0.0,4.382,119.0,,'11111222,11111222,99999999' 
WAVCIS,ioos:station:WAVCIS:CSI09:1,2009-10-04T01:00:00Z,29.1015,-89.9782,0.0,3.683,116.0,,'11111222,11111222,99999999' 
WAVCIS,ioos:station:WAVCIS:CSI09:1,2009-10-04T02:00:00Z,29.1015,-89.9782,0.0,4.601,118.0,,'11111222,11111222,99999999' 
WAVCIS,ioos:station:WAVCIS:CSI09:1,2009-10-04T03:00:00Z,29.1015,-89.9782,0.0,4.625,110.0,,'11111222,11111222,99999999' 
WAVCIS,ioos:station:WAVCIS:CSI09:1,2009-10-04T04:00:00Z,29.1015,-89.9782,0.0,5.038,125.0,,'11111222,11111222,99999999' 
WAVCIS,ioos:station:WAVCIS:CSI09:1,2009-10-04T05:00:00Z,29.1015,-89.9782,0.0,3.665,104.0,,'11111222,11111222,99999999' 
WAVCIS,ioos:station:WAVCIS:CSI09:1,2009-10-04T06:00:00Z,29.1015,-89.9782,0.0,4.213,121.0,,'11111222,11111222,99999999' 
WAVCIS,ioos:station:WAVCIS:CSI09:1,2009-10-04T07:00:00Z,29.1015,-89.9782,0.0,5.5,129.0,,'11111222,11111222,99999999' 
WAVCIS,ioos:station:WAVCIS:CSI09:1,2009-10-04T08:00:00Z,29.1015,-89.9782,0.0,4.819,132.0,,'11111222,11111222,99999999' 
WAVCIS,ioos:station:WAVCIS:CSI09:1,2009-10-04T09:00:00Z,29.1015,-89.9782,0.0,5.305,130.0,,'11111222,11111222,99999999' 
WAVCIS,ioos:station:WAVCIS:CSI09:1,2009-10-04T10:00:00Z,29.1015,-89.9782,0.0,6.012,128.0,,'11111222,11111222,99999999' 
WAVCIS,ioos:station:WAVCIS:CSI09:1,2009-10-04T11:00:00Z,29.1015,-89.9782,0.0,10.08,139.0,,'11111222,11111222,99999999' 
WAVCIS,ioos:station:WAVCIS:CSI09:1,2009-10-04T12:00:00Z,29.1015,-89.9782,0.0,13.13,151.0,,'11111222,11111222,99999999' 
WAVCIS,ioos:station:WAVCIS:CSI09:1,2009-10-04T13:00:00Z,29.1015,-89.9782,0.0,11.1,151.0,,'11111222,11111222,99999999' 
WAVCIS,ioos:station:WAVCIS:CSI09:1,2009-10-04T14:00:00Z,29.1015,-89.9782,0.0,11.16,150.0,,'11111222,11111222,99999999' 
WAVCIS,ioos:station:WAVCIS:CSI09:1,2009-10-04T15:00:00Z,29.1015,-89.9782,0.0,11.39,145.0,,'11111222,11111222,99999999' 
WAVCIS,ioos:station:WAVCIS:CSI09:1,2009-10-04T16:00:00Z,29.1015,-89.9782,0.0,12.17,149.0,,'11111222,11111222,99999999' 
WAVCIS,ioos:station:WAVCIS:CSI09:1,2009-10-04T17:00:00Z,29.1015,-89.9782,0.0,11.03,148.0,,'11111222,11111222,99999999' 
WAVCIS,ioos:station:WAVCIS:CSI09:1,2009-10-04T18:00:00Z,29.1015,-89.9782,0.0,10.33,147.0,,'11111222,11111222,99999999' 
WAVCIS,ioos:station:WAVCIS:CSI09:1,2009-10-04T19:00:00Z,29.1015,-89.9782,0.0,10.94,172.0,,'11111222,11111222,99999999' 
WAVCIS,ioos:station:WAVCIS:CSI09:1,2009-10-04T20:00:00Z,29.1015,-89.9782,0.0,10.41,176.0,,'11111222,11111222,99999999' 
WAVCIS,ioos:station:WAVCIS:CSI09:1,2009-10-04T21:00:00Z,29.1015,-89.9782,0.0,5.706,183.0,,'11111222,11111222,99999999' 
WAVCIS,ioos:station:WAVCIS:CSI09:1,2009-10-04T22:00:00Z,29.1015,-89.9782,0.0,4.388,201.0,,'11111222,11111222,99999999' 
WAVCIS,ioos:station:WAVCIS:CSI09:1,2009-10-04T23:00:00Z,29.1015,-89.9782,0.0,4.078,201.0,,'11111222,11111222,99999999' 
WAVCIS,ioos:station:WAVCIS:CSI09:1,2009-10-05T00:00:00Z,29.1015,-89.9782,0.0,4.55,199.0,,'11111222,11111222,99999999' 
WAVCIS,ioos:station:WAVCIS:CSI09:1,2009-10-05T01:00:00Z,29.1015,-89.9782,0.0,4.033,195.0,,'11111222,11111222,99999999' 
WAVCIS,ioos:station:WAVCIS:CSI09:1,2009-10-05T02:00:00Z,29.1015,-89.9782,0.0,3.496,201.0,,'11111222,11111222,99999999' 
WAVCIS,ioos:station:WAVCIS:CSI09:1,2009-10-05T03:00:00Z,29.1015,-89.9782,0.0,4.051,199.0,,'11111222,11111222,99999999' 
WAVCIS,ioos:station:WAVCIS:CSI09:1,2009-10-05T04:00:00Z,29.1015,-89.9782,0.0,4.212,200.0,,'11111222,11111222,99999999' 
WAVCIS,ioos:station:WAVCIS:CSI09:1,2009-10-05T05:00:00Z,29.1015,-89.9782,0.0,3.21,202.0,,'11111222,11111222,99999999' 
WAVCIS,ioos:station:WAVCIS:CSI09:1,2009-10-05T06:00:00Z,29.1015,-89.9782,0.0,3.585,201.0,,'11111222,11111222,99999999' 
WAVCIS,ioos:station:WAVCIS:CSI09:1,2009-10-05T07:00:00Z,29.1015,-89.9782,0.0,3.27,204.0,,'11111222,11111222,99999999' 
WAVCIS,ioos:station:WAVCIS:CSI09:1,2009-10-05T08:00:00Z,29.1015,-89.9782,0.0,3.655,200.0,,'11111222,11111222,99999999' 
WAVCIS,ioos:station:WAVCIS:CSI09:1,2009-10-05T09:00:00Z,29.1015,-89.9782,0.0,2.898,205.0,,'11111222,11111222,99999999' 
WAVCIS,ioos:station:WAVCIS:CSI09:1,2009-10-05T10:00:00Z,29.1015,-89.9782,0.0,3.035,206.0,,'11111222,11111222,99999999' 
WAVCIS,ioos:station:WAVCIS:CSI09:1,2009-10-05T11:00:00Z,29.1015,-89.9782,0.0,6.471,222.0,,'11111222,11111222,99999999' 
WAVCIS,ioos:station:WAVCIS:CSI09:1,2009-10-05T12:00:00Z,29.1015,-89.9782,0.0,5.914,225.0,,'11111222,11111222,99999999' 
WAVCIS,ioos:station:WAVCIS:CSI09:1,2009-10-05T13:00:00Z,29.1015,-89.9782,0.0,6.525,232.0,,'11111222,11111222,99999999' 
WAVCIS,ioos:station:WAVCIS:CSI09:1,2009-10-05T14:00:00Z,29.1015,-89.9782,0.0,5.749,237.0,,'11111222,11111222,99999999' 
WAVCIS,ioos:station:WAVCIS:CSI09:1,2009-10-05T15:00:00Z,29.1015,-89.9782,0.0,5.692,234.0,,'11111222,11111222,99999999' 
WAVCIS,ioos:station:WAVCIS:CSI09:1,2009-10-05T16:00:00Z,29.1015,-89.9782,0.0,5.779,236.0,,'11111222,11111222,99999999' 
WAVCIS,ioos:station:WAVCIS:CSI09:1,2009-10-05T17:00:00Z,29.1015,-89.9782,0.0,5.443,225.0,,'11111222,11111222,99999999' 
WAVCIS,ioos:station:WAVCIS:CSI09:1,2009-10-05T18:00:00Z,29.1015,-89.9782,0.0,4.434,229.0,,'11111222,11111222,99999999' 
WAVCIS,ioos:station:WAVCIS:CSI09:1,2009-10-05T19:00:00Z,29.1015,-89.9782,0.0,5.107,234.0,,'11111222,11111222,99999999' 
WAVCIS,ioos:station:WAVCIS:CSI09:1,2009-10-05T20:00:00Z,29.1015,-89.9782,0.0,6.351,238.0,,'11111222,11111222,99999999' 
WAVCIS,ioos:station:WAVCIS:CSI09:1,2009-10-05T21:00:00Z,29.1015,-89.9782,0.0,6.231,241.0,,'11111222,11111222,99999999' 
WAVCIS,ioos:station:WAVCIS:CSI09:1,2009-10-05T22:00:00Z,29.1015,-89.9782,0.0,4.961,246.0,,'11111222,11111222,99999999' 
WAVCIS,ioos:station:WAVCIS:CSI09:1,2009-10-05T23:00:00Z,29.1015,-89.9782,0.0,3.852,244.0,,'11111222,11111222,99999999' 
WAVCIS,ioos:station:WAVCIS:CSI09:1,2009-10-06T00:00:00Z,29.1015,-89.9782,0.0,3.845,246.0,,'11111222,11111222,99999999' 
WAVCIS,ioos:station:WAVCIS:CSI09:1,2009-10-06T01:00:00Z,29.1015,-89.9782,0.0,4.056,229.0,,'11111222,11111222,99999999' 
WAVCIS,ioos:station:WAVCIS:CSI09:1,2009-10-06T02:00:00Z,29.1015,-89.9782,0.0,2.957,238.0,,'11111222,11111222,99999999' 
WAVCIS,ioos:station:WAVCIS:CSI09:1,2009-10-06T03:00:00Z,29.1015,-89.9782,0.0,2.017,175.0,,'11111222,11111222,99999999' 
WAVCIS,ioos:station:WAVCIS:CSI09:1,2009-10-06T04:00:00Z,29.1015,-89.9782,0.0,2.346,162.0,,'11111222,11111222,99999999' 
WAVCIS,ioos:station:WAVCIS:CSI09:1,2009-10-06T05:00:00Z,29.1015,-89.9782,0.0,3.651,170.0,,'11111222,11111222,99999999' 
WAVCIS,ioos:station:WAVCIS:CSI09:1,2009-10-06T06:00:00Z,29.1015,-89.9782,0.0,3.588,173.0,,'11111222,11111222,99999999' 
WAVCIS,ioos:station:WAVCIS:CSI09:1,2009-10-06T07:00:00Z,29.1015,-89.9782,0.0,2.657,192.0,,'11111222,11111222,99999999' 
WAVCIS,ioos:station:WAVCIS:CSI09:1,2009-10-06T08:00:00Z,29.1015,-89.9782,0.0,3.195,192.0,,'11111222,11111222,99999999' 
WAVCIS,ioos:station:WAVCIS:CSI09:1,2009-10-06T09:00:00Z,29.1015,-89.9782,0.0,3.757,187.0,,'11111222,11111222,99999999' 
WAVCIS,ioos:station:WAVCIS:CSI09:1,2009-10-06T10:00:00Z,29.1015,-89.9782,0.0,3.123,195.0,,'11111222,11111222,99999999' 
WAVCIS,ioos:station:WAVCIS:CSI09:1,2009-10-06T11:00:00Z,29.1015,-89.9782,0.0,3.736,177.0,,'11111222,11111222,99999999' 
WAVCIS,ioos:station:WAVCIS:CSI09:1,2009-10-06T12:00:00Z,29.1015,-89.9782,0.0,4.025,172.0,,'11111222,11111222,99999999' 
WAVCIS,ioos:station:WAVCIS:CSI09:1,2009-10-06T13:00:00Z,29.1015,-89.9782,0.0,4.206,172.0,,'11111222,11111222,99999999' 
WAVCIS,ioos:station:WAVCIS:CSI09:1,2009-10-06T14:00:00Z,29.1015,-89.9782,0.0,4.637,170.0,,'11111222,11111222,99999999' 
WAVCIS,ioos:station:WAVCIS:CSI09:1,2009-10-06T15:00:00Z,29.1015,-89.9782,0.0,4.817,172.0,,'11111222,11111222,99999999' 
WAVCIS,ioos:station:WAVCIS:CSI09:1,2009-10-06T16:00:00Z,29.1015,-89.9782,0.0,4.684,175.0,,'11111222,11111222,99999999' 
WAVCIS,ioos:station:WAVCIS:CSI09:1,2009-10-06T17:00:00Z,29.1015,-89.9782,0.0,2.843,204.0,,'11111222,11111222,99999999' 
WAVCIS,ioos:station:WAVCIS:CSI09:1,2009-10-06T18:00:00Z,29.1015,-89.9782,0.0,3.216,198.0,,'11111222,11111222,99999999' 
WAVCIS,ioos:station:WAVCIS:CSI09:1,2009-10-06T19:00:00Z,29.1015,-89.9782,0.0,2.742,200.0,,'11111222,11111222,99999999' 
WAVCIS,ioos:station:WAVCIS:CSI09:1,2009-10-06T20:00:00Z,29.1015,-89.9782,0.0,2.553,194.0,,'11111222,11111222,99999999' 
WAVCIS,ioos:station:WAVCIS:CSI09:1,2009-10-06T21:00:00Z,29.1015,-89.9782,0.0,2.741,199.0,,'11111222,11111222,99999999' 
WAVCIS,ioos:station:WAVCIS:CSI09:1,2009-10-06T22:00:00Z,29.1015,-89.9782,0.0,2.703,201.0,,'11111222,11111222,99999999' 
WAVCIS,ioos:station:WAVCIS:CSI09:1,2009-10-06T23:00:00Z,29.1015,-89.9782,0.0,2.559,192.0,,'11111222,11111222,99999999' 
WAVCIS,ioos:station:WAVCIS:CSI09:1,2009-10-07T00:00:00Z,29.1015,-89.9782,0.0,3.079,187.0,,'11111222,11111222,99999999' 
WAVCIS,ioos:station:WAVCIS:CSI09:1,2009-10-07T01:00:00Z,29.1015,-89.9782,0.0,2.832,194.0,,'11111222,11111222,99999999' 
WAVCIS,ioos:station:WAVCIS:CSI09:1,2009-10-07T02:00:00Z,29.1015,-89.9782,0.0,3.099,235.0,,'11111222,11111222,99999999' 
WAVCIS,ioos:station:WAVCIS:CSI09:1,2009-10-07T03:00:00Z,29.1015,-89.9782,0.0,5.655,172.0,,'11111222,11111222,99999999' 
WAVCIS,ioos:station:WAVCIS:CSI09:1,2009-10-07T04:00:00Z,29.1015,-89.9782,0.0,5.884,172.0,,'11111222,11111222,99999999' 
WAVCIS,ioos:station:WAVCIS:CSI09:1,2009-10-07T05:00:00Z,29.1015,-89.9782,0.0,6.07,175.0,,'11111222,11111222,99999999' 
WAVCIS,ioos:station:WAVCIS:CSI09:1,2009-10-07T06:00:00Z,29.1015,-89.9782,0.0,4.645,181.0,,'11111222,11111222,99999999' 
WAVCIS,ioos:station:WAVCIS:CSI09:1,2009-10-07T07:00:00Z,29.1015,-89.9782,0.0,3.275,196.0,,'11111222,11111222,99999999' 
WAVCIS,ioos:station:WAVCIS:CSI09:1,2009-10-07T08:00:00Z,29.1015,-89.9782,0.0,3.168,201.0,,'11111222,11111222,99999999' 
WAVCIS,ioos:station:WAVCIS:CSI09:1,2009-10-07T09:00:00Z,29.1015,-89.9782,0.0,3.318,196.0,,'11111222,11111222,99999999' 
WAVCIS,ioos:station:WAVCIS:CSI09:1,2009-10-07T10:00:00Z,29.1015,-89.9782,0.0,2.844,196.0,,'11111222,11111222,99999999' 
WAVCIS,ioos:station:WAVCIS:CSI09:1,2009-10-07T11:00:00Z,29.1015,-89.9782,0.0,2.644,214.0,,'11111222,11111222,99999999' 
WAVCIS,ioos:station:WAVCIS:CSI09:1,2009-10-07T12:00:00Z,29.1015,-89.9782,0.0,2.24,217.0,,'11111222,11111222,99999999' 
WAVCIS,ioos:station:WAVCIS:CSI09:1,2009-10-07T13:00:00Z,29.1015,-89.9782,0.0,2.051,214.0,,'11111222,11111222,99999999' 
WAVCIS,ioos:station:WAVCIS:CSI09:1,2009-10-07T14:00:00Z,29.1015,-89.9782,0.0,3.445,232.0,,'11111222,11111222,99999999' 
WAVCIS,ioos:station:WAVCIS:CSI09:1,2009-10-07T15:00:00Z,29.1015,-89.9782,0.0,3.331,232.0,,'11111222,11111222,99999999' 
WAVCIS,ioos:station:WAVCIS:CSI09:1,2009-10-07T16:00:00Z,29.1015,-89.9782,0.0,2.168,213.0,,'11111222,11111222,99999999' 
WAVCIS,ioos:station:WAVCIS:CSI09:1,2009-10-07T17:00:00Z,29.1015,-89.9782,0.0,2.527,204.0,,'11111222,11111222,99999999' 
WAVCIS,ioos:station:WAVCIS:CSI09:1,2009-10-07T18:00:00Z,29.1015,-89.9782,0.0,2.29,210.0,,'11111222,11111222,99999999' 
WAVCIS,ioos:station:WAVCIS:CSI09:1,2009-10-07T19:00:00Z,29.1015,-89.9782,0.0,2.877,200.0,,'11111222,11111222,99999999' 
WAVCIS,ioos:station:WAVCIS:CSI09:1,2009-10-07T20:00:00Z,29.1015,-89.9782,0.0,2.842,199.0,,'11111222,11111222,99999999' 
WAVCIS,ioos:station:WAVCIS:CSI09:1,2009-10-07T21:00:00Z,29.1015,-89.9782,0.0,2.806,209.0,,'11111222,11111222,99999999' 
WAVCIS,ioos:station:WAVCIS:CSI09:1,2009-10-07T22:00:00Z,29.1015,-89.9782,0.0,2.64,216.0,,'11111222,11111222,99999999' 
WAVCIS,ioos:station:WAVCIS:CSI09:1,2009-10-07T23:00:00Z,29.1015,-89.9782,0.0,2.51,218.0,,'11111222,11111222,99999999' 
WAVCIS,ioos:station:WAVCIS:CSI09:1,2009-10-08T00:00:00Z,29.1015,-89.9782,0.0,2.422,220.0,,'11111222,11111222,99999999' 
WAVCIS,ioos:station:WAVCIS:CSI09:1,2009-10-08T01:00:00Z,29.1015,-89.9782,0.0,3.121,177.0,,'11111222,11111222,99999999' 
WAVCIS,ioos:station:WAVCIS:CSI09:1,2009-10-08T02:00:00Z,29.1015,-89.9782,0.0,3.185,165.0,,'11111222,11111222,99999999' 
WAVCIS,ioos:station:WAVCIS:CSI09:1,2009-10-08T03:00:00Z,29.1015,-89.9782,0.0,3.451,161.0,,'11111222,11111222,99999999' 
WAVCIS,ioos:station:WAVCIS:CSI09:1,2009-10-08T04:00:00Z,29.1015,-89.9782,0.0,4.302,163.0,,'11111222,11111222,99999999' 
WAVCIS,ioos:station:WAVCIS:CSI09:1,2009-10-08T05:00:00Z,29.1015,-89.9782,0.0,5.043,162.0,,'11111222,11111222,99999999' 
WAVCIS,ioos:station:WAVCIS:CSI09:1,2009-10-08T06:00:00Z,29.1015,-89.9782,0.0,5.933,172.0,,'11111222,11111222,99999999' 
WAVCIS,ioos:station:WAVCIS:CSI09:1,2009-10-08T07:00:00Z,29.1015,-89.9782,0.0,5.329,170.0,,'11111222,11111222,99999999' 
WAVCIS,ioos:station:WAVCIS:CSI09:1,2009-10-08T08:00:00Z,29.1015,-89.9782,0.0,5.454,170.0,,'11111222,11111222,99999999' 
WAVCIS,ioos:station:WAVCIS:CSI09:1,2009-10-08T09:00:00Z,29.1015,-89.9782,0.0,5.236,163.0,,'11111222,11111222,99999999' 
WAVCIS,ioos:station:WAVCIS:CSI09:1,2009-10-08T10:00:00Z,29.1015,-89.9782,0.0,4.776,154.0,,'11111222,11111222,99999999' 
WAVCIS,ioos:station:WAVCIS:CSI09:1,2009-10-08T11:00:00Z,29.1015,-89.9782,0.0,4.516,160.0,,'11111222,11111222,99999999' 
WAVCIS,ioos:station:WAVCIS:CSI09:1,2009-10-08T12:00:00Z,29.1015,-89.9782,0.0,4.492,168.0,,'11111222,11111222,99999999' 
WAVCIS,ioos:station:WAVCIS:CSI09:1,2009-10-08T13:00:00Z,29.1015,-89.9782,0.0,4.398,160.0,,'11111222,11111222,99999999' 
WAVCIS,ioos:station:WAVCIS:CSI09:1,2009-10-08T14:00:00Z,29.1015,-89.9782,0.0,4.922,157.0,,'11111222,11111222,99999999' 
WAVCIS,ioos:station:WAVCIS:CSI09:1,2009-10-08T15:00:00Z,29.1015,-89.9782,0.0,6.135,151.0,,'11111222,11111222,99999999' 
WAVCIS,ioos:station:WAVCIS:CSI09:1,2009-10-08T16:00:00Z,29.1015,-89.9782,0.0,6.587,159.0,,'11111222,11111222,99999999' 
WAVCIS,ioos:station:WAVCIS:CSI09:1,2009-10-08T17:00:00Z,29.1015,-89.9782,0.0,6.432,164.0,,'11111222,11111222,99999999' 
WAVCIS,ioos:station:WAVCIS:CSI09:1,2009-10-08T18:00:00Z,29.1015,-89.9782,0.0,6.506,162.0,,'11111222,11111222,99999999' 
WAVCIS,ioos:station:WAVCIS:CSI09:1,2009-10-08T19:00:00Z,29.1015,-89.9782,0.0,6.49,157.0,,'11111222,11111222,99999999' 
WAVCIS,ioos:station:WAVCIS:CSI09:1,2009-10-08T20:00:00Z,29.1015,-89.9782,0.0,7.87,157.0,,'11111222,11111222,99999999' 
WAVCIS,ioos:station:WAVCIS:CSI09:1,2009-10-08T21:00:00Z,29.1015,-89.9782,0.0,7.43,156.0,,'11111222,11111222,99999999' 
WAVCIS,ioos:station:WAVCIS:CSI09:1,2009-10-08T22:00:00Z,29.1015,-89.9782,0.0,7.79,156.0,,'11111222,11111222,99999999' 
WAVCIS,ioos:station:WAVCIS:CSI09:1,2009-10-08T23:00:00Z,29.1015,-89.9782,0.0,7.98,159.0,,'11111222,11111222,99999999' 
WAVCIS,ioos:station:WAVCIS:CSI09:1,2009-10-09T00:00:00Z,29.1015,-89.9782,0.0,7.58,163.0,,'11111222,11111222,99999999' 
WAVCIS,ioos:station:WAVCIS:CSI09:1,2009-10-09T01:00:00Z,29.1015,-89.9782,0.0,7.79,163.0,,'11111222,11111222,99999999' 
WAVCIS,ioos:station:WAVCIS:CSI09:1,2009-10-09T02:00:00Z,29.1015,-89.9782,0.0,8.49,162.0,,'11111222,11111222,99999999' 
WAVCIS,ioos:station:WAVCIS:CSI09:1,2009-10-09T03:00:00Z,29.1015,-89.9782,0.0,8.48,154.0,,'11111222,11111222,99999999' 
WAVCIS,ioos:station:WAVCIS:CSI09:1,2009-10-09T04:00:00Z,29.1015,-89.9782,0.0,8.55,159.0,,'11111222,11111222,99999999' 
WAVCIS,ioos:station:WAVCIS:CSI09:1,2009-10-09T05:00:00Z,29.1015,-89.9782,0.0,9.37,164.0,,'11111222,11111222,99999999' 
WAVCIS,ioos:station:WAVCIS:CSI09:1,2009-10-09T06:00:00Z,29.1015,-89.9782,0.0,9.29,169.0,,'11111222,11111222,99999999' 